QFA324 YSSY-KLAX

Flight info

Callsign QFA324
Flight time N/A
Altitude 35000
Route NOBAR A579 JORDY DCT 3005S16031E 2903S16300E 2848S16336E 2605S16903E 2513S17038E 2218S17517E/N0494F370 1942S17855E 1809S17904W 1547S17547W 1510S17457W 1258S17145W 1153S17010W 0937S16649W 0714S16332W 0500S16053W/N0489F390 0451S16042W 0317S15857W 0035N15510W 0152N15401W 0524N15102W 0907N14758W 1324N14404W 1613N14118W 1819N13904W/N0481F410 2207N13421W 2410N13141W 2715N12820W DCT FICKY GOATZ2
Aircraft B789/H-SDE1E2E3FGHIJ2J3J4J5M1RWXY/LB1D1

Departure

Time N/A
Airport Sydney Kingsford Smith International Airport (YSSY)

Arrival

Time 2026-05-07 14:21
Airport Los Angeles International Airport (KLAX)
Time Latitude Longitude Altitude Speed Heading
2026-05-07 12:57 28.50675 -126.42503 41224 ft 473 kts 51°
2026-05-07 12:57 28.52617 -126.39487 41216 ft 473 kts 51°
2026-05-07 12:57 28.56501 -126.33446 41218 ft 473 kts 51°
2026-05-07 12:58 28.60385 -126.27398 41221 ft 473 kts 51°
2026-05-07 12:58 28.63611 -126.22369 41206 ft 473 kts 51°
2026-05-07 12:59 28.67478 -126.16331 41191 ft 471 kts 51°
2026-05-07 12:59 28.71329 -126.10312 41200 ft 470 kts 51°
2026-05-07 13:00 28.75797 -126.03316 41206 ft 470 kts 51°
2026-05-07 13:00 28.79014 -125.98269 41205 ft 470 kts 51°
2026-05-07 13:01 28.82858 -125.92237 41203 ft 470 kts 51°
2026-05-07 13:01 28.86672 -125.86236 41208 ft 470 kts 51°
2026-05-07 13:02 28.90505 -125.80202 41205 ft 469 kts 51°
2026-05-07 13:02 28.94331 -125.74168 41214 ft 469 kts 51°
2026-05-07 13:03 28.98150 -125.68137 41209 ft 468 kts 51°
2026-05-07 13:03 29.01959 -125.62113 41204 ft 468 kts 52°
2026-05-07 13:04 29.05772 -125.56074 41210 ft 469 kts 52°
2026-05-07 13:04 29.09595 -125.50010 41223 ft 471 kts 52°
2026-05-07 13:05 29.13420 -125.43935 41217 ft 470 kts 52°
2026-05-07 13:05 29.17207 -125.37911 41217 ft 469 kts 52°
2026-05-07 13:06 29.21005 -125.31861 41211 ft 467 kts 52°
2026-05-07 13:06 29.24790 -125.25822 41207 ft 467 kts 52°
2026-05-07 13:07 29.28573 -125.19778 41210 ft 467 kts 52°
2026-05-07 13:07 29.32354 -125.13730 41210 ft 466 kts 52°
2026-05-07 13:08 29.36122 -125.07690 41212 ft 465 kts 52°
2026-05-07 13:08 29.39881 -125.01660 41207 ft 465 kts 52°
2026-05-07 13:09 29.43646 -124.95608 41213 ft 466 kts 53°
2026-05-07 13:09 29.47419 -124.89536 41214 ft 467 kts 53°
2026-05-07 13:10 29.51185 -124.83466 41212 ft 467 kts 53°
2026-05-07 13:10 29.54925 -124.77430 41212 ft 467 kts 53°
2026-05-07 13:11 29.58686 -124.71351 41207 ft 467 kts 53°
2026-05-07 13:11 29.62440 -124.65272 41208 ft 466 kts 53°
2026-05-07 13:12 29.66183 -124.59203 41200 ft 465 kts 53°
2026-05-07 13:12 29.69920 -124.53136 41195 ft 464 kts 53°
2026-05-07 13:13 29.73645 -124.47079 41195 ft 464 kts 53°
2026-05-07 13:13 29.77377 -124.41000 41201 ft 465 kts 53°
2026-05-07 13:14 29.81111 -124.34911 41206 ft 465 kts 53°
2026-05-07 13:14 29.84838 -124.28823 41205 ft 465 kts 53°
2026-05-07 13:15 29.88563 -124.22730 41202 ft 465 kts 53°
2026-05-07 13:15 29.92272 -124.16651 41201 ft 462 kts 53°
2026-05-07 13:16 29.95964 -124.10594 41204 ft 461 kts 53°
2026-05-07 13:16 29.99652 -124.04535 41194 ft 461 kts 53°
2026-05-07 13:17 30.03341 -123.98466 41192 ft 462 kts 53°
2026-05-07 13:17 30.06999 -123.92434 41203 ft 461 kts 53°
2026-05-07 13:18 30.10675 -123.86368 41208 ft 461 kts 53°
2026-05-07 13:18 30.14347 -123.80296 41201 ft 461 kts 53°
2026-05-07 13:19 30.18015 -123.74225 41202 ft 461 kts 53°
2026-05-07 13:19 30.21682 -123.68143 41212 ft 461 kts 53°
2026-05-07 13:20 30.25339 -123.62070 41192 ft 459 kts 53°
2026-05-07 13:20 30.28985 -123.56008 41194 ft 459 kts 53°
2026-05-07 13:21 30.32626 -123.49942 41195 ft 459 kts 53°
2026-05-07 13:21 30.36266 -123.43871 41189 ft 459 kts 54°
2026-05-07 13:22 30.39906 -123.37788 41194 ft 459 kts 53°
2026-05-07 13:22 30.43542 -123.31707 41191 ft 459 kts 54°
2026-05-07 13:23 30.47178 -123.25612 41184 ft 459 kts 54°
2026-05-07 13:23 30.50808 -123.19520 41185 ft 459 kts 54°
2026-05-07 13:24 30.54417 -123.13454 41192 ft 459 kts 54°
2026-05-07 13:24 30.58042 -123.07351 41192 ft 459 kts 54°
2026-05-07 13:25 30.61659 -123.01253 41191 ft 458 kts 54°
2026-05-07 13:25 30.65272 -122.95153 41193 ft 458 kts 54°
2026-05-07 13:26 30.68883 -122.89045 41191 ft 458 kts 54°
2026-05-07 13:26 30.72490 -122.82936 41186 ft 458 kts 54°
2026-05-07 13:27 30.76090 -122.76827 41187 ft 458 kts 54°
2026-05-07 13:27 30.79688 -122.70716 41189 ft 458 kts 54°
2026-05-07 13:28 30.83279 -122.64603 41187 ft 458 kts 54°
2026-05-07 13:28 30.86870 -122.58484 41178 ft 457 kts 54°
2026-05-07 13:29 30.90452 -122.52369 41189 ft 457 kts 54°
2026-05-07 13:29 30.94031 -122.46250 41182 ft 457 kts 54°
2026-05-07 13:30 30.97605 -122.40131 41181 ft 457 kts 54°
2026-05-07 13:30 31.01155 -122.34043 41183 ft 457 kts 54°
2026-05-07 13:31 31.04722 -122.27917 41181 ft 456 kts 54°
2026-05-07 13:31 31.08285 -122.21786 41173 ft 456 kts 54°
2026-05-07 13:32 31.11846 -122.15652 41175 ft 456 kts 54°
2026-05-07 13:32 31.15403 -122.09514 41182 ft 457 kts 54°
2026-05-07 13:33 31.18961 -122.03364 41171 ft 456 kts 54°
2026-05-07 13:33 31.22511 -121.97220 41180 ft 456 kts 54°
2026-05-07 13:34 31.27829 -121.87993 41170 ft 456 kts 54°
2026-05-07 13:35 31.31369 -121.81841 41167 ft 456 kts 54°
2026-05-07 13:35 31.34905 -121.75686 41157 ft 456 kts 54°
2026-05-07 13:36 31.38438 -121.69527 41154 ft 456 kts 54°
2026-05-07 13:36 31.41969 -121.63362 41153 ft 456 kts 54°
2026-05-07 13:37 31.45474 -121.57231 41153 ft 456 kts 54°
2026-05-07 13:37 31.48997 -121.51060 41159 ft 456 kts 54°
2026-05-07 13:38 31.52517 -121.44882 41155 ft 456 kts 54°
2026-05-07 13:38 31.55924 -121.38610 41156 ft 457 kts 64°
2026-05-07 13:39 31.58374 -121.31696 41161 ft 460 kts 66°
2026-05-07 13:39 31.60772 -121.24737 41166 ft 460 kts 65°
2026-05-07 13:40 31.63186 -121.17794 41155 ft 459 kts 66°
2026-05-07 13:40 31.65583 -121.10837 41153 ft 459 kts 65°
2026-05-07 13:41 31.67982 -121.03891 41149 ft 459 kts 65°
2026-05-07 13:41 31.70372 -120.96936 41149 ft 459 kts 66°
2026-05-07 13:42 31.72745 -120.90029 41141 ft 459 kts 66°
2026-05-07 13:42 31.75127 -120.83076 41140 ft 459 kts 66°
2026-05-07 13:43 31.77505 -120.76121 41140 ft 459 kts 66°
2026-05-07 13:43 31.79878 -120.69165 41136 ft 458 kts 66°
2026-05-07 13:44 31.82248 -120.62205 41131 ft 458 kts 66°
2026-05-07 13:44 31.84613 -120.55245 41130 ft 458 kts 66°
2026-05-07 13:45 31.86974 -120.48279 41124 ft 458 kts 66°
2026-05-07 13:45 31.89332 -120.41309 41124 ft 459 kts 66°
2026-05-07 13:46 31.91687 -120.34334 41138 ft 458 kts 66°
2026-05-07 13:46 31.94218 -120.27479 41166 ft 454 kts 55°
2026-05-07 13:46 31.96084 -120.24505 41162 ft 450 kts 44°
2026-05-07 13:47 31.98211 -120.21790 41129 ft 451 kts 45°
2026-05-07 13:47 32.01780 -120.17310 41134 ft 451 kts 44°
2026-05-07 13:48 32.06065 -120.11904 41127 ft 452 kts 45°
2026-05-07 13:48 32.10354 -120.06480 41129 ft 451 kts 45°
2026-05-07 13:49 32.14620 -120.01083 40914 ft 447 kts 45°
2026-05-07 13:49 32.16744 -119.98390 40294 ft 449 kts 45°
2026-05-07 13:49 32.18868 -119.95698 39821 ft 447 kts 45°
2026-05-07 13:49 32.20985 -119.93011 39339 ft 446 kts 45°
2026-05-07 13:50 32.23096 -119.90331 38878 ft 445 kts 45°
2026-05-07 13:50 32.25201 -119.87654 38304 ft 444 kts 45°
2026-05-07 13:50 32.27307 -119.84977 37658 ft 445 kts 45°
2026-05-07 13:50 32.29411 -119.82300 37032 ft 445 kts 45°
2026-05-07 13:51 32.31518 -119.79616 36413 ft 445 kts 45°
2026-05-07 13:51 32.33622 -119.76934 35780 ft 445 kts 45°
2026-05-07 13:51 32.35728 -119.74248 35141 ft 446 kts 45°
2026-05-07 13:51 32.37811 -119.71589 34505 ft 446 kts 45°
2026-05-07 13:52 32.39925 -119.68888 33890 ft 446 kts 45°
2026-05-07 13:52 32.42020 -119.66210 33342 ft 442 kts 45°
2026-05-07 13:52 32.44098 -119.63551 32789 ft 439 kts 45°
2026-05-07 13:52 32.46164 -119.60907 32237 ft 436 kts 45°
2026-05-07 13:53 32.48211 -119.58285 31696 ft 433 kts 45°
2026-05-07 13:53 32.50248 -119.55674 31168 ft 430 kts 45°
2026-05-07 13:53 32.52268 -119.53082 30641 ft 427 kts 45°
2026-05-07 13:53 32.54277 -119.50503 30139 ft 424 kts 46°
2026-05-07 13:54 32.56270 -119.47941 29538 ft 421 kts 46°
2026-05-07 13:54 32.58245 -119.45402 28977 ft 417 kts 46°
2026-05-07 13:54 32.60201 -119.42884 28415 ft 414 kts 45°
2026-05-07 13:54 32.62143 -119.40385 27866 ft 410 kts 45°
2026-05-07 13:55 32.64070 -119.37902 27325 ft 407 kts 45°
2026-05-07 13:55 32.65982 -119.35437 26793 ft 404 kts 45°
2026-05-07 13:55 32.67880 -119.32988 26256 ft 401 kts 45°
2026-05-07 13:55 32.69738 -119.30590 25737 ft 398 kts 45°
2026-05-07 13:56 32.71633 -119.28141 25207 ft 396 kts 45°
2026-05-07 13:56 32.73464 -119.25775 24708 ft 393 kts 45°
2026-05-07 13:56 32.75330 -119.23362 24237 ft 389 kts 45°
2026-05-07 13:56 32.77127 -119.21034 23773 ft 386 kts 45°
2026-05-07 13:57 32.78938 -119.18690 23204 ft 383 kts 45°
2026-05-07 13:57 32.80733 -119.16364 22668 ft 379 kts 46°
2026-05-07 13:57 32.82508 -119.14061 22121 ft 376 kts 46°
2026-05-07 13:57 32.84264 -119.11782 21593 ft 372 kts 46°
2026-05-07 13:58 32.86007 -119.09520 21055 ft 369 kts 46°
2026-05-07 13:58 32.87731 -119.07279 20540 ft 366 kts 46°
2026-05-07 13:58 32.89441 -119.05056 20026 ft 362 kts 46°
2026-05-07 13:58 32.91133 -119.02854 19515 ft 359 kts 46°
2026-05-07 13:59 32.92815 -119.00665 18988 ft 357 kts 46°
2026-05-07 13:59 32.94481 -118.98495 18506 ft 353 kts 46°
2026-05-07 13:59 32.96131 -118.96344 17946 ft 351 kts 46°
2026-05-07 13:59 32.97769 -118.94207 17398 ft 347 kts 46°
2026-05-07 14:00 32.99388 -118.92095 16828 ft 344 kts 46°
2026-05-07 14:00 33.00997 -118.89996 16260 ft 342 kts 46°
2026-05-07 14:00 33.02583 -118.87922 16010 ft 333 kts 46°
2026-05-07 14:00 33.04117 -118.85917 16010 ft 333 kts 46°
2026-05-07 14:01 33.05696 -118.83854 16017 ft 339 kts 46°
2026-05-07 14:01 33.07284 -118.81775 16019 ft 340 kts 46°
2026-05-07 14:01 33.08876 -118.79690 16019 ft 340 kts 46°
2026-05-07 14:01 33.10470 -118.77602 16017 ft 340 kts 46°
2026-05-07 14:02 33.12063 -118.75514 16011 ft 340 kts 46°
2026-05-07 14:02 33.13655 -118.73425 16009 ft 340 kts 47°
2026-05-07 14:02 33.15245 -118.71339 16011 ft 340 kts 47°
2026-05-07 14:02 33.16837 -118.69249 16011 ft 340 kts 47°
2026-05-07 14:03 33.18428 -118.67154 16015 ft 341 kts 48°
2026-05-07 14:03 33.19928 -118.64970 15995 ft 338 kts 49°
2026-05-07 14:03 33.21478 -118.62854 15658 ft 339 kts 47°
2026-05-07 14:03 33.23029 -118.60739 15409 ft 338 kts 49°
2026-05-07 14:04 33.24545 -118.58599 15149 ft 337 kts 49°
2026-05-07 14:04 33.26050 -118.56461 14887 ft 336 kts 49°
2026-05-07 14:04 33.27561 -118.54337 14636 ft 335 kts 49°
2026-05-07 14:04 33.29071 -118.52222 14401 ft 334 kts 49°
2026-05-07 14:05 33.30573 -118.50111 14155 ft 333 kts 49°
2026-05-07 14:05 33.32065 -118.48006 14025 ft 329 kts 49°
2026-05-07 14:05 33.33385 -118.45791 14018 ft 329 kts 64°
2026-05-07 14:05 33.34042 -118.43157 14038 ft 335 kts 82°
2026-05-07 14:06 33.34023 -118.40359 14036 ft 338 kts 91°
2026-05-07 14:06 33.33873 -118.37547 14031 ft 339 kts 92°
2026-05-07 14:06 33.33696 -118.34739 14032 ft 337 kts 92°
2026-05-07 14:06 33.33536 -118.31953 14029 ft 335 kts 91°
2026-05-07 14:07 33.33387 -118.29172 14023 ft 335 kts 91°
2026-05-07 14:07 33.33234 -118.26397 14022 ft 335 kts 91°
2026-05-07 14:07 33.33075 -118.23614 14014 ft 335 kts 91°
2026-05-07 14:07 33.32916 -118.20836 14012 ft 335 kts 91°
2026-05-07 14:08 33.32758 -118.18057 14008 ft 334 kts 91°
2026-05-07 14:08 33.32601 -118.15285 14006 ft 334 kts 91°
2026-05-07 14:08 33.32488 -118.12512 14001 ft 333 kts 85°
2026-05-07 14:08 33.32984 -118.09837 13902 ft 328 kts 66°
2026-05-07 14:09 33.34176 -118.07517 13539 ft 329 kts 48°
2026-05-07 14:09 33.35736 -118.05533 13255 ft 327 kts 46°
2026-05-07 14:09 33.37319 -118.03582 13002 ft 326 kts 46°
2026-05-07 14:09 33.38923 -118.01670 12699 ft 325 kts 41°
2026-05-07 14:10 33.40878 -118.00316 12427 ft 326 kts 21°
2026-05-07 14:10 33.43105 -117.99811 12169 ft 329 kts
2026-05-07 14:10 33.45369 -117.99876 11881 ft 330 kts
2026-05-07 14:10 33.47657 -117.99995 11634 ft 329 kts 360°
2026-05-07 14:11 33.49943 -118.00122 11383 ft 329 kts
2026-05-07 14:11 33.52225 -118.00231 11134 ft 328 kts
2026-05-07 14:11 33.54503 -118.00334 10913 ft 327 kts
2026-05-07 14:11 33.56778 -118.00442 10668 ft 327 kts
2026-05-07 14:12 33.59048 -118.00553 10423 ft 326 kts
2026-05-07 14:12 33.61318 -118.00655 10192 ft 326 kts
2026-05-07 14:12 33.63583 -118.00752 9908 ft 326 kts
2026-05-07 14:12 33.65843 -118.01160 9249 ft 331 kts 345°
2026-05-07 14:13 33.68040 -118.01946 8629 ft 328 kts 346°
2026-05-07 14:13 33.70235 -118.02686 8021 ft 326 kts 346°
2026-05-07 14:13 33.72410 -118.03425 7430 ft 324 kts 345°
2026-05-07 14:13 33.74567 -118.04173 6847 ft 322 kts 345°
2026-05-07 14:14 33.76663 -118.04902 6795 ft 304 kts 345°
2026-05-07 14:14 33.78630 -118.05624 6761 ft 287 kts 339°
2026-05-07 14:14 33.80414 -118.06531 6723 ft 271 kts 340°
2026-05-07 14:14 33.82130 -118.07307 6665 ft 256 kts 340°
2026-05-07 14:15 33.83758 -118.08065 6512 ft 248 kts 339°
2026-05-07 14:15 33.85344 -118.08833 6217 ft 244 kts 339°
2026-05-07 14:15 33.86909 -118.09591 5922 ft 240 kts 339°
2026-05-07 14:15 33.88448 -118.10335 5637 ft 236 kts 337°
2026-05-07 14:16 33.89728 -118.11517 5314 ft 235 kts 305°
2026-05-07 14:16 33.90650 -118.13101 5082 ft 229 kts 309°
2026-05-07 14:16 33.91633 -118.14560 4983 ft 217 kts 309°
2026-05-07 14:16 33.92533 -118.15957 4925 ft 205 kts 308°
2026-05-07 14:17 33.93385 -118.17319 4672 ft 204 kts 308°
2026-05-07 14:17 33.94238 -118.18680 4415 ft 203 kts 308°
2026-05-07 14:17 33.95086 -118.20025 4156 ft 201 kts 308°
2026-05-07 14:17 33.95925 -118.21372 3883 ft 200 kts 305°
2026-05-07 14:18 33.96526 -118.22898 3531 ft 205 kts 288°
2026-05-07 14:18 33.96775 -118.24561 3373 ft 199 kts 272°
2026-05-07 14:18 33.96669 -118.26211 3109 ft 198 kts 262°
2026-05-07 14:18 33.96467 -118.27821 2798 ft 196 kts 262°
2026-05-07 14:19 33.96292 -118.29410 2611 ft 182 kts 263°
2026-05-07 14:19 33.96141 -118.30933 2389 ft 187 kts 264°
2026-05-07 14:19 33.95987 -118.32496 2042 ft 185 kts 264°
2026-05-07 14:19 33.95838 -118.33965 1736 ft 170 kts 264°
2026-05-07 14:20 33.95695 -118.35397 1228 ft 180 kts 263°
2026-05-07 14:20 33.95546 -118.36885 783 ft 174 kts 262°
2026-05-07 14:20 33.95397 -118.38335 497 ft 173 kts 263°
2026-05-07 14:20 33.95250 -118.39784 205 ft 174 kts 263°
2026-05-07 14:21 33.95114 -118.41114 100 ft 133 kts 263°
2026-05-07 14:21 33.95047 -118.41801 103 ft 36 kts 262°